| time (UTC) | temp F | wind direction | speed knots | gust knots | rain 1hr in | rain 24hr in | rain mn in | humidity % | barometer mb |
| 20260508005509 | 61 | 212 | 1.7 | 1.7 | 0.00 | 0.00 | 0.00 | 81 | 1010.2 |
| 20260508005013 | 61 | 275 | 1.7 | 1.7 | 0.00 | 0.00 | 0.00 | 81 | 1010.2 |
| 20260508004513 | 61 | 351 | 2.6 | 3.5 | 0.00 | 0.00 | 0.00 | 81 | 1010.2 |
| 20260508004013 | 61 | 344 | 0.9 | 1.7 | 0.00 | 0.00 | 0.00 | 82 | 1010.2 |
| 20260508003510 | 61 | 267 | 0.9 | 1.7 | 0.00 | 0.00 | 0.00 | 82 | 1010.2 |
| 20260508003023 | 61 | 318 | 1.7 | 3.5 | 0.00 | 0.00 | 0.00 | 82 | 1010.5 |
| 20260508002509 | 61 | 329 | 1.7 | 2.6 | 0.00 | 0.00 | 0.00 | 83 | 1010.5 |
| 20260508002013 | 59 | 261 | 1.7 | 1.7 | 0.00 | 0.00 | 0.00 | 82 | 1010.5 |
| 20260508001518 | 61 | 220 | 1.7 | 2.6 | 0.00 | 0.00 | 0.00 | 80 | 1010.5 |
| 20260508000510 | 61 | 329 | 3.5 | 3.5 | 0.00 | 0.00 | 0.00 | 83 | 1010.8 |
| 20260508000035 | 61 | 0 | 6.1 | 6.1 | 0.00 | 0.00 | 0.00 | 84 | 1010.8 |
| 20260507235510 | 59 | 297 | 0.9 | 0.9 | 0.00 | 0.00 | 0.00 | 84 | 1010.8 |
| 20260507235013 | 59 | 256 | 0.9 | 0.9 | 0.00 | 0.00 | 0.00 | 84 | 1011.2 |
| 20260507234512 | 59 | 270 | 0.9 | 1.7 | 0.00 | 0.00 | 0.00 | 83 | 1011.2 |
| 20260507234013 | 59 | 231 | 0.9 | 0.9 | 0.00 | 0.00 | 0.00 | 82 | 1011.2 |
| 20260507233023 | 61 | 281 | 0.9 | 1.7 | 0.00 | 0.00 | 0.00 | 80 | 1011.2 |
| 20260507232509 | 61 | 333 | 1.7 | 1.7 | 0.00 | 0.00 | 0.00 | 80 | 1011.2 |
| 20260507232013 | 61 | 339 | 1.7 | 2.6 | 0.00 | 0.00 | 0.00 | 80 | 1010.8 |
| 20260507231513 | 61 | 325 | 0.9 | 0.9 | 0.00 | 0.00 | 0.00 | 80 | 1011.2 |
| 20260507231014 | 61 | 324 | 0.9 | 1.7 | 0.00 | 0.00 | 0.00 | 80 | 1011.2 |
| 20260507230509 | 61 | 282 | 3.5 | 4.3 | 0.00 | 0.00 | 0.00 | 82 | 1011.2 |
| 20260507230032 | 61 | 262 | 1.7 | 1.7 | 0.00 | 0.00 | 0.00 | 82 | 1011.5 |
| 20260507225510 | 61 | 249 | 2.6 | 3.5 | 0.00 | 0.00 | 0.00 | 80 | 1011.2 |
| 20260507225013 | 63 | 314 | 1.7 | 1.7 | 0.00 | 0.00 | 0.00 | 78 | 1011.2 |
| 20260507224012 | 63 | 299 | 1.7 | 2.6 | 0.00 | 0.00 | 0.00 | 79 | 1011.2 |
| 20260507223511 | 63 | 238 | 1.7 | 2.6 | 0.00 | 0.00 | 0.00 | 80 | 1011.5 |
| 20260507222511 | 63 | 291 | 0.9 | 1.7 | 0.00 | 0.00 | 0.00 | 81 | 1011.5 |
| 20260507222013 | 63 | 244 | 0.0 | 0.0 | 0.00 | 0.00 | 0.00 | 80 | 1011.5 |
| 20260507221513 | 63 | 161 | 0.0 | 0.9 | 0.00 | 0.00 | 0.00 | 79 | 1011.5 |
| 20260507221013 | 63 | 291 | 3.5 | 5.2 | 0.00 | 0.00 | 0.00 | 80 | 1011.2 |
| 20260507220510 | 63 | 227 | 1.7 | 2.6 | 0.00 | 0.00 | 0.00 | 80 | 1011.2 |
| 20260507220034 | 63 | 257 | 0.9 | 1.7 | 0.00 | 0.00 | 0.00 | 78 | 1011.2 |
| 20260507215511 | 64 | 267 | 3.5 | 4.3 | 0.00 | 0.00 | 0.00 | 77 | 1011.9 |
| 20260507215014 | 63 | 283 | 3.5 | 4.3 | 0.00 | 0.00 | 0.00 | 77 | 1011.5 |
| 20260507214513 | 63 | 292 | 1.7 | 2.6 | 0.00 | 0.00 | 0.00 | 77 | 1011.5 |
| 20260507214015 | 63 | 338 | 3.5 | 3.5 | 0.00 | 0.00 | 0.00 | 77 | 1011.5 |
| 20260507213509 | 63 | 262 | 1.7 | 3.5 | 0.00 | 0.00 | 0.00 | 78 | 1011.5 |
| 20260507213022 | 63 | 286 | 3.5 | 4.3 | 0.00 | 0.00 | 0.00 | 80 | 1011.5 |
| 20260507212510 | 63 | 266 | 0.9 | 1.7 | 0.00 | 0.00 | 0.00 | 80 | 1011.5 |
| 20260507212014 | 63 | 262 | 0.9 | 1.7 | 0.00 | 0.00 | 0.00 | 80 | 1011.5 |
| 20260507211513 | 61 | 273 | 1.7 | 2.6 | 0.00 | 0.00 | 0.00 | 82 | 1011.5 |
| 20260507211014 | 61 | 245 | 1.7 | 1.7 | 0.00 | 0.00 | 0.00 | 82 | 1011.2 |
| 20260507210510 | 61 | 235 | 0.9 | 1.7 | 0.00 | 0.00 | 0.00 | 81 | 1011.5 |
| 20260507210033 | 61 | 237 | 1.7 | 1.7 | 0.00 | 0.00 | 0.00 | 81 | 1011.5 |
| 20260507205511 | 61 | 202 | 1.7 | 2.6 | 0.00 | 0.00 | 0.00 | 80 | 1011.2 |
| 20260507205014 | 61 | 238 | 1.7 | 1.7 | 0.00 | 0.00 | 0.00 | 79 | 1011.2 |
| 20260507204513 | 63 | 194 | 3.5 | 3.5 | 0.00 | 0.00 | 0.00 | 78 | 1011.2 |
| 20260507204015 | 64 | 248 | 1.7 | 3.5 | 0.00 | 0.00 | 0.00 | 77 | 1011.5 |
| 20260507203509 | 63 | 202 | 0.0 | 0.0 | 0.00 | 0.00 | 0.00 | 76 | 1011.2 |
| 20260507203023 | 63 | 238 | 0.9 | 1.7 | 0.00 | 0.00 | 0.00 | 76 | 1011.2 |
| 20260507202509 | 64 | 268 | 1.7 | 2.6 | 0.00 | 0.00 | 0.00 | 75 | 1011.5 |
| 20260507202014 | 64 | 273 | 4.3 | 5.2 | 0.00 | 0.00 | 0.00 | 76 | 1011.2 |
| 20260507201513 | 64 | 285 | 1.7 | 2.6 | 0.00 | 0.00 | 0.00 | 76 | 1011.2 |
| 20260507201013 | 64 | 270 | 1.7 | 2.6 | 0.00 | 0.00 | 0.00 | 76 | 1011.2 |
| 20260507200509 | 63 | 193 | 0.9 | 1.7 | 0.00 | 0.00 | 0.00 | 76 | 1010.8 |
| 20260507195509 | 63 | 187 | 0.0 | 0.9 | 0.00 | 0.00 | 0.00 | 76 | 1011.5 |
| 20260507195013 | 63 | 16 | 0.9 | 1.7 | 0.00 | 0.00 | 0.00 | 77 | 1011.2 |
| 20260507194513 | 63 | 295 | 0.9 | 1.7 | 0.00 | 0.00 | 0.00 | 77 | 1011.2 |
| 20260507194013 | 63 | 94 | 0.9 | 1.7 | 0.00 | 0.00 | 0.00 | 78 | 1011.2 |
| 20260507193510 | 64 | 4 | 0.9 | 1.7 | 0.00 | 0.00 | 0.00 | 78 | 1011.2 |
| 20260507192510 | 64 | 348 | 1.7 | 2.6 | 0.00 | 0.00 | 0.00 | 78 | 1011.2 |
| 20260507192013 | 64 | 186 | 0.0 | 0.9 | 0.00 | 0.00 | 0.00 | 78 | 1010.8 |
| 20260507191513 | 64 | 41 | 1.7 | 2.6 | 0.00 | 0.00 | 0.00 | 78 | 1011.2 |
| 20260507191014 | 64 | 58 | 0.0 | 0.9 | 0.00 | 0.00 | 0.00 | 78 | 1010.8 |
| 20260507190510 | 64 | 178 | 0.9 | 0.9 | 0.00 | 0.00 | 0.00 | 78 | 1011.2 |
| 20260507190033 | 64 | 265 | 0.9 | 0.9 | 0.00 | 0.00 | 0.00 | 78 | 1010.8 |
| 20260507185014 | 64 | 348 | 1.7 | 3.5 | 0.00 | 0.00 | 0.00 | 78 | 1011.2 |
| 20260507184013 | 64 | 0 | 4.3 | 5.2 | 0.00 | 0.00 | 0.00 | 78 | 1011.2 |
| 20260507183509 | 64 | 357 | 3.5 | 5.2 | 0.00 | 0.00 | 0.00 | 77 | 1011.2 |
| 20260507183024 | 64 | 337 | 2.6 | 3.5 | 0.00 | 0.00 | 0.00 | 77 | 1011.2 |
| 20260507182510 | 64 | 338 | 0.9 | 1.7 | 0.00 | 0.00 | 0.00 | 77 | 1011.2 |
| 20260507182014 | 64 | 0 | 0.9 | 0.9 | 0.00 | 0.00 | 0.00 | 77 | 1011.2 |
| 20260507181513 | 64 | 14 | 1.7 | 1.7 | 0.00 | 0.00 | 0.00 | 77 | 1010.8 |
| 20260507181013 | 64 | 0 | 3.5 | 4.3 | 0.00 | 0.00 | 0.00 | 77 | 1010.8 |
| 20260507180509 | 64 | 2 | 3.5 | 5.2 | 0.00 | 0.00 | 0.00 | 77 | 1010.8 |
| 20260507180032 | 64 | 310 | 1.7 | 3.5 | 0.00 | 0.00 | 0.00 | 76 | 1010.8 |
| 20260507175014 | 66 | 22 | 2.6 | 3.5 | 0.00 | 0.00 | 0.00 | 76 | 1011.2 |
| 20260507174513 | 66 | 11 | 3.5 | 3.5 | 0.00 | 0.00 | 0.00 | 75 | 1011.2 |
| 20260507174014 | 66 | 357 | 1.7 | 3.5 | 0.00 | 0.00 | 0.00 | 74 | 1011.2 |
| 20260507173510 | 66 | 129 | 0.9 | 1.7 | 0.00 | 0.00 | 0.00 | 73 | 1011.2 |
| 20260507172509 | 66 | 301 | 1.7 | 2.6 | 0.00 | 0.00 | 0.00 | 72 | 1010.8 |
| 20260507172014 | 68 | 25 | 0.9 | 1.7 | 0.00 | 0.00 | 0.00 | 70 | 1011.2 |
| 20260507171513 | 68 | 287 | 1.7 | 1.7 | 0.00 | 0.00 | 0.00 | 69 | 1011.2 |
| 20260507170509 | 70 | 346 | 2.6 | 3.5 | 0.00 | 0.00 | 0.00 | 65 | 1011.2 |
| 20260507170032 | 70 | 16 | 0.9 | 1.7 | 0.00 | 0.00 | 0.00 | 68 | 1010.8 |
| 20260507165510 | 68 | 90 | 0.9 | 1.7 | 0.00 | 0.00 | 0.00 | 69 | 1011.2 |
| 20260507165013 | 70 | 42 | 0.9 | 1.7 | 0.00 | 0.00 | 0.00 | 68 | 1011.2 |
| 20260507164513 | 70 | 143 | 1.7 | 3.5 | 0.00 | 0.00 | 0.00 | 66 | 1011.2 |
| 20260507164013 | 70 | 31 | 4.3 | 5.2 | 0.00 | 0.00 | 0.00 | 64 | 1010.8 |
| 20260507163510 | 70 | 43 | 0.0 | 0.9 | 0.00 | 0.00 | 0.00 | 63 | 1010.8 |
| 20260507163024 | 70 | 280 | 0.9 | 1.7 | 0.00 | 0.00 | 0.00 | 64 | 1011.2 |
| 20260507162509 | 70 | 343 | 3.5 | 3.5 | 0.00 | 0.00 | 0.00 | 65 | 1010.8 |
| 20260507161513 | 70 | 94 | 3.5 | 4.3 | 0.00 | 0.00 | 0.00 | 63 | 1011.2 |
| 20260507161013 | 70 | 354 | 1.7 | 2.6 | 0.00 | 0.00 | 0.00 | 67 | 1011.2 |
| 20260507160510 | 68 | 337 | 5.2 | 6.1 | 0.00 | 0.00 | 0.00 | 66 | 1010.8 |
| 20260507160034 | 70 | 348 | 2.6 | 3.5 | 0.00 | 0.00 | 0.00 | 65 | 1010.5 |
| 20260507155510 | 70 | 11 | 3.5 | 5.2 | 0.00 | 0.00 | 0.00 | 65 | 1010.8 |
| 20260507155015 | 70 | 297 | 1.7 | 3.5 | 0.00 | 0.00 | 0.00 | 65 | 1011.2 |
| 20260507154515 | 70 | 45 | 1.7 | 2.6 | 0.00 | 0.00 | 0.00 | 66 | 1010.8 |
| 20260507154013 | 68 | 21 | 5.2 | 6.1 | 0.00 | 0.00 | 0.00 | 66 | 1010.8 |
| 20260507153509 | 68 | 349 | 5.2 | 6.1 | 0.00 | 0.00 | 0.00 | 67 | 1010.8 |
| 20260507153024 | 68 | 32 | 6.1 | 7.8 | 0.00 | 0.00 | 0.00 | 67 | 1010.8 |
| 20260507152509 | 68 | 63 | 4.3 | 6.1 | 0.00 | 0.00 | 0.00 | 69 | 1010.8 |
| 20260507152014 | 68 | 353 | 3.5 | 3.5 | 0.00 | 0.00 | 0.00 | 68 | 1010.8 |
| 20260507151514 | 68 | 30 | 3.5 | 3.5 | 0.00 | 0.00 | 0.00 | 67 | 1011.2 |
| 20260507151013 | 68 | 21 | 5.2 | 6.1 | 0.00 | 0.00 | 0.00 | 67 | 1010.8 |
| 20260507150510 | 68 | 18 | 4.3 | 6.1 | 0.00 | 0.00 | 0.00 | 67 | 1011.2 |
| 20260507150033 | 68 | 4 | 5.2 | 6.1 | 0.00 | 0.00 | 0.00 | 67 | 1011.2 |
| 20260507145510 | 68 | 2 | 6.1 | 7.0 | 0.00 | 0.00 | 0.00 | 66 | 1011.2 |
| 20260507145013 | 68 | 358 | 5.2 | 6.1 | 0.00 | 0.00 | 0.00 | 65 | 1011.2 |
| 20260507143510 | 68 | 2 | 6.1 | 7.0 | 0.00 | 0.00 | 0.00 | 67 | 1011.2 |
| 20260507142510 | 70 | 289 | 2.6 | 3.5 | 0.00 | 0.00 | 0.00 | 65 | 1011.2 |
| 20260507142013 | 70 | 51 | 4.3 | 5.2 | 0.00 | 0.00 | 0.00 | 65 | 1011.2 |
| 20260507141513 | 68 | 15 | 5.2 | 6.1 | 0.00 | 0.00 | 0.00 | 66 | 1011.2 |
| 20260507141014 | 70 | 45 | 5.2 | 6.1 | 0.00 | 0.00 | 0.00 | 64 | 1011.5 |
| 20260507140509 | 70 | 112 | 4.3 | 5.2 | 0.00 | 0.00 | 0.00 | 63 | 1011.5 |
| 20260507140033 | 70 | 324 | 2.6 | 4.3 | 0.00 | 0.00 | 0.00 | 66 | 1011.5 |
| 20260507135510 | 70 | 42 | 5.2 | 6.1 | 0.00 | 0.00 | 0.00 | 63 | 1011.2 |
| 20260507134513 | 68 | 352 | 3.5 | 4.3 | 0.00 | 0.00 | 0.00 | 67 | 1011.5 |
| 20260507134012 | 68 | 5 | 3.5 | 5.2 | 0.00 | 0.00 | 0.00 | 67 | 1011.5 |
| 20260507133510 | 68 | 352 | 5.2 | 7.8 | 0.00 | 0.00 | 0.00 | 68 | 1011.9 |
| 20260507133024 | 68 | 12 | 5.2 | 6.1 | 0.00 | 0.00 | 0.00 | 69 | 1011.9 |
| 20260507132509 | 68 | 13 | 6.1 | 7.8 | 0.00 | 0.00 | 0.00 | 69 | 1011.9 |
| 20260507132013 | 68 | 357 | 4.3 | 6.1 | 0.00 | 0.00 | 0.00 | 69 | 1011.9 |
| 20260507131513 | 66 | 29 | 6.1 | 7.0 | 0.00 | 0.00 | 0.00 | 68 | 1012.2 |
| 20260507131013 | 66 | 43 | 7.0 | 7.8 | 0.00 | 0.00 | 0.00 | 68 | 1011.9 |
| 20260507130510 | 68 | 15 | 5.2 | 6.1 | 0.00 | 0.00 | 0.00 | 69 | 1011.9 |
| 20260507130032 | 68 | 24 | 5.2 | 7.0 | 0.00 | 0.00 | 0.00 | 69 | 1012.2 |
| 20260507125510 | 68 | 358 | 4.3 | 4.3 | 0.00 | 0.00 | 0.00 | 68 | 1012.2 |
| 20260507125014 | 68 | 351 | 3.5 | 6.1 | 0.00 | 0.00 | 0.00 | 68 | 1012.2 |
| 20260507124513 | 68 | 28 | 4.3 | 5.2 | 0.00 | 0.00 | 0.00 | 67 | 1012.2 |
| 20260507123510 | 68 | 220 | 2.6 | 3.5 | 0.00 | 0.00 | 0.00 | 67 | 1012.2 |
| 20260507123024 | 68 | 12 | 5.2 | 6.1 | 0.00 | 0.00 | 0.00 | 69 | 1012.5 |
| 20260507122509 | 68 | 342 | 1.7 | 2.6 | 0.00 | 0.00 | 0.00 | 70 | 1012.2 |
| 20260507122013 | 66 | 88 | 4.3 | 5.2 | 0.00 | 0.00 | 0.00 | 69 | 1012.5 |
| 20260507121513 | 68 | 17 | 5.2 | 6.1 | 0.00 | 0.00 | 0.00 | 68 | 1012.5 |
| 20260507121013 | 68 | 32 | 4.3 | 4.3 | 0.00 | 0.00 | 0.00 | 70 | 1012.2 |
| 20260507120510 | 66 | 357 | 3.5 | 4.3 | 0.00 | 0.00 | 0.00 | 69 | 1012.2 |
| 20260507120033 | 68 | 27 | 5.2 | 6.1 | 0.00 | 0.00 | 0.00 | 70 | 1012.2 |
| 20260507115510 | 66 | 358 | 5.2 | 6.1 | 0.00 | 0.00 | 0.00 | 70 | 1012.2 |
| 20260507115014 | 66 | 31 | 6.1 | 6.1 | 0.00 | 0.00 | 0.00 | 69 | 1012.5 |
| 20260507114514 | 68 | 55 | 5.2 | 6.1 | 0.00 | 0.00 | 0.00 | 70 | 1012.2 |
| 20260507113509 | 68 | 29 | 3.5 | 4.3 | 0.00 | 0.00 | 0.00 | 69 | 1012.2 |
| 20260507113023 | 66 | 25 | 4.3 | 4.3 | 0.00 | 0.00 | 0.00 | 71 | 1012.2 |
| 20260507112509 | 66 | 0 | 4.3 | 5.2 | 0.00 | 0.00 | 0.00 | 72 | 1012.5 |
| 20260507112013 | 66 | 34 | 3.5 | 5.2 | 0.00 | 0.00 | 0.00 | 71 | 1012.2 |
| 20260507111513 | 66 | 333 | 7.0 | 7.8 | 0.00 | 0.00 | 0.00 | 70 | 1012.5 |
| 20260507111013 | 66 | 3 | 5.2 | 6.1 | 0.00 | 0.00 | 0.00 | 70 | 1012.5 |
| 20260507110510 | 66 | 162 | 3.5 | 3.5 | 0.00 | 0.00 | 0.00 | 71 | 1012.5 |
| 20260507110032 | 66 | 330 | 3.5 | 5.2 | 0.00 | 0.00 | 0.00 | 71 | 1012.9 |
| 20260507105509 | 66 | 33 | 5.2 | 6.1 | 0.00 | 0.00 | 0.00 | 69 | 1012.9 |
| 20260507105013 | 66 | 334 | 3.5 | 4.3 | 0.00 | 0.00 | 0.00 | 71 | 1012.5 |
| 20260507104513 | 66 | 15 | 3.5 | 3.5 | 0.00 | 0.00 | 0.00 | 71 | 1012.5 |
| 20260507104014 | 66 | 19 | 4.3 | 4.3 | 0.00 | 0.00 | 0.00 | 72 | 1012.9 |
| 20260507103509 | 66 | 46 | 0.9 | 1.7 | 0.00 | 0.00 | 0.00 | 74 | 1012.5 |
| 20260507103023 | 66 | 63 | 1.7 | 2.6 | 0.00 | 0.00 | 0.00 | 73 | 1012.9 |
| 20260507102509 | 66 | 93 | 2.6 | 4.3 | 0.00 | 0.00 | 0.00 | 73 | 1012.9 |
| 20260507102013 | 66 | 61 | 4.3 | 6.1 | 0.00 | 0.00 | 0.00 | 73 | 1012.9 |
| 20260507101513 | 66 | 17 | 4.3 | 5.2 | 0.00 | 0.00 | 0.00 | 72 | 1012.9 |
| 20260507101013 | 66 | 354 | 5.2 | 7.8 | 0.00 | 0.00 | 0.00 | 71 | 1012.9 |
| 20260507100509 | 66 | 77 | 3.5 | 6.1 | 0.00 | 0.00 | 0.00 | 71 | 1012.9 |
| 20260507100033 | 68 | 358 | 0.9 | 1.7 | 0.00 | 0.00 | 0.00 | 71 | 1012.9 |
| 20260507095509 | 66 | 14 | 3.5 | 4.3 | 0.00 | 0.00 | 0.00 | 71 | 1012.9 |
| 20260507095013 | 66 | 22 | 4.3 | 6.1 | 0.00 | 0.00 | 0.00 | 71 | 1012.5 |
| 20260507094512 | 66 | 0 | 2.6 | 3.5 | 0.00 | 0.00 | 0.00 | 72 | 1012.5 |
| 20260507094013 | 66 | 266 | 1.7 | 1.7 | 0.00 | 0.00 | 0.00 | 73 | 1012.5 |
| 20260507093509 | 68 | 90 | 3.5 | 4.3 | 0.00 | 0.00 | 0.00 | 71 | 1012.5 |
| 20260507093024 | 66 | 15 | 0.9 | 1.7 | 0.00 | 0.00 | 0.00 | 72 | 1012.5 |
| 20260507092509 | 66 | 78 | 5.2 | 6.1 | 0.00 | 0.00 | 0.00 | 72 | 1012.5 |
| 20260507092013 | 66 | 30 | 4.3 | 6.1 | 0.00 | 0.00 | 0.00 | 72 | 1012.5 |
| 20260507091513 | 66 | 2 | 2.6 | 3.5 | 0.00 | 0.00 | 0.00 | 73 | 1012.2 |
| 20260507091013 | 66 | 138 | 0.9 | 1.7 | 0.00 | 0.00 | 0.00 | 74 | 1012.2 |
| 20260507090509 | 66 | 103 | 3.5 | 5.2 | 0.00 | 0.00 | 0.00 | 72 | 1012.2 |
| 20260507090033 | 66 | 39 | 0.9 | 1.7 | 0.00 | 0.00 | 0.00 | 72 | 1012.2 |
| 20260507085509 | 66 | 58 | 3.5 | 6.1 | 0.00 | 0.00 | 0.00 | 73 | 1012.2 |
| 20260507085013 | 66 | 338 | 4.3 | 5.2 | 0.00 | 0.00 | 0.00 | 72 | 1011.9 |
| 20260507084513 | 66 | 73 | 3.5 | 4.3 | 0.00 | 0.00 | 0.00 | 72 | 1012.2 |
| 20260507084013 | 66 | 28 | 1.7 | 2.6 | 0.00 | 0.00 | 0.00 | 71 | 1012.2 |
| 20260507083510 | 66 | 121 | 2.6 | 3.5 | 0.00 | 0.00 | 0.00 | 72 | 1012.2 |
| 20260507083024 | 66 | 35 | 3.5 | 4.3 | 0.00 | 0.00 | 0.00 | 72 | 1012.2 |
| 20260507082509 | 66 | 55 | 5.2 | 6.1 | 0.00 | 0.00 | 0.00 | 71 | 1012.2 |
| 20260507082013 | 66 | 94 | 5.2 | 6.1 | 0.00 | 0.00 | 0.00 | 73 | 1012.2 |
| 20260507081513 | 66 | 75 | 5.2 | 6.1 | 0.00 | 0.00 | 0.00 | 73 | 1012.5 |
| 20260507081012 | 66 | 30 | 3.5 | 3.5 | 0.00 | 0.00 | 0.00 | 72 | 1012.2 |
| 20260507080509 | 66 | 66 | 3.5 | 5.2 | 0.00 | 0.00 | 0.00 | 72 | 1012.5 |
| 20260507080033 | 66 | 338 | 2.6 | 3.5 | 0.00 | 0.00 | 0.00 | 72 | 1012.5 |
| 20260507075510 | 66 | 71 | 3.5 | 3.5 | 0.00 | 0.00 | 0.00 | 73 | 1012.2 |
| 20260507075013 | 66 | 358 | 3.5 | 3.5 | 0.00 | 0.00 | 0.00 | 72 | 1012.5 |
| 20260507074513 | 66 | 3 | 3.5 | 3.5 | 0.00 | 0.00 | 0.00 | 72 | 1012.2 |
| 20260507074013 | 66 | 42 | 2.6 | 3.5 | 0.00 | 0.00 | 0.00 | 72 | 1012.2 |
| 20260507073510 | 66 | 91 | 5.2 | 6.1 | 0.00 | 0.00 | 0.00 | 71 | 1012.2 |
| 20260507073024 | 66 | 7 | 1.7 | 1.7 | 0.00 | 0.00 | 0.00 | 71 | 1012.5 |
| 20260507072509 | 66 | 112 | 1.7 | 1.7 | 0.00 | 0.00 | 0.00 | 71 | 1012.9 |
| 20260507072013 | 66 | 26 | 1.7 | 3.5 | 0.00 | 0.00 | 0.00 | 72 | 1012.5 |
| 20260507071513 | 66 | 94 | 1.7 | 3.5 | 0.00 | 0.00 | 0.00 | 72 | 1012.5 |
| 20260507071014 | 66 | 47 | 1.7 | 2.6 | 0.00 | 0.00 | 0.00 | 73 | 1012.5 |
| 20260507070510 | 66 | 7 | 2.6 | 3.5 | 0.00 | 0.00 | 0.00 | 72 | 1012.9 |
| 20260507070035 | 66 | 9 | 1.7 | 3.5 | 0.00 | 0.00 | 0.00 | 73 | 1012.5 |
| 20260507065510 | 66 | 137 | 0.9 | 1.7 | 0.00 | 0.00 | 0.00 | 74 | 1012.2 |
| 20260507065013 | 64 | 32 | 1.7 | 2.6 | 0.00 | 0.00 | 0.00 | 75 | 1012.2 |
| 20260507064513 | 64 | 129 | 4.3 | 5.2 | 0.00 | 0.00 | 0.00 | 74 | 1012.2 |
| 20260507064014 | 64 | 105 | 3.5 | 3.5 | 0.00 | 0.00 | 0.00 | 75 | 1012.2 |
| 20260507063509 | 64 | 99 | 1.7 | 1.7 | 0.00 | 0.00 | 0.00 | 76 | 1012.2 |
| 20260507063025 | 64 | 29 | 1.7 | 1.7 | 0.00 | 0.00 | 0.00 | 75 | 1012.2 |
| 20260507062509 | 64 | 56 | 0.9 | 1.7 | 0.00 | 0.00 | 0.00 | 75 | 1012.2 |
| 20260507062013 | 66 | 46 | 4.3 | 5.2 | 0.00 | 0.00 | 0.00 | 72 | 1011.9 |
| 20260507061514 | 66 | 328 | 0.9 | 1.7 | 0.00 | 0.00 | 0.00 | 74 | 1011.9 |
| 20260507061015 | 64 | 26 | 1.7 | 3.5 | 0.00 | 0.00 | 0.00 | 74 | 1011.9 |
| 20260507060509 | 64 | 33 | 1.7 | 3.5 | 0.00 | 0.00 | 0.00 | 75 | 1011.9 |
| 20260507060032 | 64 | 58 | 1.7 | 1.7 | 0.00 | 0.00 | 0.00 | 74 | 1011.9 |
| 20260507055509 | 64 | 68 | 3.5 | 6.1 | 0.00 | 0.00 | 0.00 | 74 | 1011.9 |
| 20260507055014 | 64 | 42 | 2.6 | 2.6 | 0.00 | 0.00 | 0.00 | 74 | 1011.9 |
| 20260507054513 | 64 | 18 | 1.7 | 3.5 | 0.00 | 0.00 | 0.00 | 73 | 1011.5 |
| 20260507054013 | 64 | 245 | 0.9 | 1.7 | 0.00 | 0.00 | 0.00 | 76 | 1011.5 |
| 20260507053509 | 64 | 315 | 3.5 | 6.1 | 0.00 | 0.00 | 0.00 | 75 | 1011.5 |
| 20260507053022 | 64 | 308 | 1.7 | 3.5 | 0.00 | 0.00 | 0.00 | 75 | 1011.5 |
| 20260507052509 | 64 | 44 | 2.6 | 3.5 | 0.00 | 0.00 | 0.00 | 75 | 1011.9 |
| 20260507052013 | 64 | 37 | 2.6 | 3.5 | 0.00 | 0.00 | 0.00 | 75 | 1011.5 |
| 20260507051513 | 64 | 72 | 4.3 | 6.1 | 0.00 | 0.00 | 0.00 | 75 | 1011.5 |
| 20260507051013 | 64 | 57 | 1.7 | 3.5 | 0.00 | 0.00 | 0.00 | 76 | 1011.5 |
| 20260507050510 | 63 | 9 | 0.9 | 1.7 | 0.00 | 0.00 | 0.00 | 75 | 1011.2 |
| 20260507050032 | 63 | 157 | 1.7 | 1.7 | 0.00 | 0.00 | 0.00 | 76 | 1011.5 |
| 20260507045510 | 63 | 356 | 1.7 | 2.6 | 0.00 | 0.00 | 0.00 | 76 | 1011.2 |
| 20260507045012 | 63 | 320 | 5.2 | 6.1 | 0.00 | 0.00 | 0.00 | 76 | 1011.2 |
| 20260507044513 | 63 | 311 | 0.9 | 1.7 | 0.00 | 0.00 | 0.00 | 77 | 1011.2 |
| 20260507044013 | 63 | 348 | 1.7 | 3.5 | 0.00 | 0.00 | 0.00 | 77 | 1011.2 |
| 20260507043509 | 63 | 234 | 2.6 | 3.5 | 0.00 | 0.00 | 0.00 | 77 | 1011.2 |
| 20260507043022 | 63 | 38 | 3.5 | 4.3 | 0.00 | 0.00 | 0.00 | 77 | 1011.2 |
| 20260507042509 | 63 | 300 | 3.5 | 3.5 | 0.00 | 0.00 | 0.00 | 77 | 1011.2 |
| 20260507042013 | 63 | 275 | 3.5 | 6.1 | 0.00 | 0.00 | 0.00 | 78 | 1011.2 |
| 20260507041513 | 63 | 291 | 5.2 | 6.1 | 0.00 | 0.00 | 0.00 | 77 | 1011.2 |
| 20260507041013 | 63 | 329 | 5.2 | 7.8 | 0.00 | 0.00 | 0.00 | 76 | 1011.2 |
| 20260507040509 | 63 | 347 | 5.2 | 6.1 | 0.00 | 0.00 | 0.00 | 77 | 1011.2 |
| 20260507040031 | 63 | 0 | 6.1 | 7.8 | 0.00 | 0.00 | 0.00 | 78 | 1011.2 |
| 20260507035510 | 63 | 267 | 3.5 | 4.3 | 0.00 | 0.00 | 0.00 | 78 | 1011.2 |
| 20260507035013 | 63 | 135 | 1.7 | 2.6 | 0.00 | 0.00 | 0.00 | 78 | 1010.8 |
| 20260507034014 | 63 | 334 | 6.1 | 7.8 | 0.00 | 0.00 | 0.00 | 78 | 1011.2 |
| 20260507033509 | 63 | 344 | 8.7 | 10.4 | 0.00 | 0.00 | 0.00 | 78 | 1011.2 |
| 20260507033022 | 61 | 337 | 7.0 | 7.8 | 0.00 | 0.00 | 0.00 | 79 | 1011.2 |
| 20260507032512 | 61 | 332 | 8.7 | 10.4 | 0.00 | 0.00 | 0.00 | 81 | 1010.8 |
| 20260507032013 | 61 | 130 | 1.7 | 2.6 | 0.00 | 0.00 | 0.00 | 84 | 1011.2 |
| 20260507031513 | 61 | 329 | 1.7 | 2.6 | 0.00 | 0.00 | 0.00 | 86 | 1010.8 |
| 20260507031013 | 61 | 135 | 0.9 | 1.7 | 0.00 | 0.00 | 0.00 | 86 | 1010.8 |
| 20260507030509 | 61 | 99 | 1.7 | 1.7 | 0.00 | 0.00 | 0.00 | 86 | 1011.2 |
| 20260507030034 | 61 | 33 | 7.0 | 7.8 | 0.00 | 0.00 | 0.00 | 86 | 1011.2 |
| 20260507025509 | 61 | 281 | 2.6 | 3.5 | 0.00 | 0.00 | 0.00 | 86 | 1011.2 |
| 20260507025012 | 61 | 19 | 1.7 | 1.7 | 0.00 | 0.00 | 0.00 | 86 | 1011.2 |
| 20260507024513 | 61 | 6 | 3.5 | 4.3 | 0.00 | 0.00 | 0.00 | 86 | 1010.8 |
| 20260507024013 | 61 | 28 | 2.6 | 3.5 | 0.00 | 0.00 | 0.00 | 86 | 1011.2 |
| 20260507023509 | 61 | 343 | 2.6 | 3.5 | 0.00 | 0.00 | 0.00 | 86 | 1011.2 |
| 20260507023022 | 61 | 9 | 2.6 | 3.5 | 0.00 | 0.00 | 0.00 | 86 | 1010.8 |
| 20260507022510 | 61 | 309 | 3.5 | 4.3 | 0.00 | 0.00 | 0.00 | 86 | 1011.2 |
| 20260507022013 | 61 | 23 | 1.7 | 1.7 | 0.00 | 0.00 | 0.00 | 86 | 1011.2 |
| 20260507021514 | 61 | 286 | 2.6 | 3.5 | 0.00 | 0.00 | 0.00 | 86 | 1011.2 |
| 20260507021013 | 61 | 347 | 3.5 | 7.8 | 0.00 | 0.00 | 0.00 | 86 | 1011.2 |
| 20260507020509 | 61 | 354 | 4.3 | 6.1 | 0.00 | 0.00 | 0.00 | 85 | 1011.2 |
| 20260507020031 | 61 | 85 | 4.3 | 5.2 | 0.00 | 0.00 | 0.00 | 85 | 1010.8 |
| 20260507015509 | 61 | 107 | 3.5 | 4.3 | 0.00 | 0.00 | 0.00 | 85 | 1010.8 |
| 20260507015013 | 61 | 289 | 0.9 | 0.9 | 0.00 | 0.00 | 0.00 | 85 | 1010.8 |
| 20260507014512 | 61 | 178 | 0.9 | 1.7 | 0.00 | 0.00 | 0.00 | 85 | 1010.8 |
| 20260507014014 | 61 | 181 | 0.0 | 0.9 | 0.00 | 0.00 | 0.00 | 85 | 1010.8 |
| 20260507013509 | 61 | 0 | 3.5 | 4.3 | 0.00 | 0.00 | 0.00 | 84 | 1010.8 |
| 20260507013022 | 61 | 144 | 1.7 | 1.7 | 0.00 | 0.00 | 0.00 | 84 | 1011.2 |
| 20260507012509 | 61 | 25 | 1.7 | 1.7 | 0.00 | 0.00 | 0.00 | 84 | 1010.8 |
| 20260507012014 | 61 | 264 | 1.7 | 2.6 | 0.00 | 0.00 | 0.00 | 83 | 1010.8 |
| 20260507011513 | 61 | 353 | 1.7 | 3.5 | 0.00 | 0.00 | 0.00 | 83 | 1010.8 |
| 20260507011013 | 61 | 132 | 0.9 | 1.7 | 0.00 | 0.00 | 0.00 | 83 | 1010.8 |
| 20260507010509 | 61 | 45 | 2.6 | 3.5 | 0.00 | 0.00 | 0.00 | 82 | 1010.8 |
| 20260507010031 | 61 | 96 | 1.7 | 2.6 | 0.00 | 0.00 | 0.00 | 82 | 1010.8 |